Track ONEWEB-0353 now! 10-day predictions ONEWEB-0353 is classified as:
1 49282U 21090D 22142.25001157 -.00007409 00000-0 -18231-1 0 9997 2 49282 87.9354 225.2287 0002033 98.9096 153.8687 13.20916114 33518